TimeEST,TemperatureF,Dew PointF,Humidity,Sea Level PressureIn,VisibilityMPH,Wind Direction,Wind SpeedMPH,Gust SpeedMPH,PrecipitationIn,Events,Conditions,WindDirDegrees,DateUTC
12:14 AM,30.2,26.6,86,29.78,10.0,NNE,12.7,18.4,N/A,,Clear,20,2013-03-06 05:14:00
12:34 AM,30.2,24.8,80,29.78,10.0,North,9.2,17.3,N/A,,Clear,10,2013-03-06 05:34:00
12:55 AM,30.2,24.8,80,29.78,10.0,NNE,11.5,-,N/A,,Clear,20,2013-03-06 05:55:00
1:15 AM,30.2,24.8,80,29.78,10.0,NNE,12.7,16.1,N/A,,Clear,20,2013-03-06 06:15:00
1:35 AM,30.2,24.8,80,29.79,10.0,NNE,8.1,18.4,N/A,,Clear,20,2013-03-06 06:35:00
1:55 AM,30.2,24.8,80,29.80,10.0,NNE,10.4,17.3,N/A,,Clear,30,2013-03-06 06:55:00
2:15 AM,30.2,24.8,80,29.81,10.0,NNE,10.4,16.1,N/A,,Clear,20,2013-03-06 07:15:00
2:35 AM,30.2,24.8,80,29.81,10.0,NNE,9.2,-,N/A,,Clear,20,2013-03-06 07:35:00
2:55 AM,30.2,26.6,86,29.81,10.0,NNE,13.8,17.3,N/A,,Scattered Clouds,20,2013-03-06 07:55:00
3:15 AM,30.2,26.6,86,29.81,10.0,NNE,10.4,-,N/A,,Scattered Clouds,20,2013-03-06 08:15:00
3:35 AM,30.2,26.6,86,29.82,10.0,NNE,9.2,17.3,N/A,,Scattered Clouds,20,2013-03-06 08:35:00
3:56 AM,30.2,26.6,86,29.82,10.0,North,10.4,-,N/A,,Scattered Clouds,10,2013-03-06 08:56:00
4:16 AM,30.2,26.6,86,29.83,10.0,NNE,11.5,17.3,N/A,,Scattered Clouds,20,2013-03-06 09:16:00
4:31 AM,30.2,26.6,86,29.84,10.0,NNE,9.2,-,N/A,,Clear,20,2013-03-06 09:31:00
4:51 AM,30.2,26.6,86,29.85,10.0,North,9.2,-,N/A,,Scattered Clouds,10,2013-03-06 09:51:00
5:11 AM,30.2,26.6,86,29.87,10.0,NNE,8.1,-,N/A,,Scattered Clouds,20,2013-03-06 10:11:00
5:51 AM,28.4,26.6,93,29.89,10.0,North,8.1,-,N/A,,Clear,10,2013-03-06 10:51:00
6:11 AM,28.4,26.6,93,29.91,10.0,NNE,6.9,-,N/A,,Clear,20,2013-03-06 11:11:00
6:31 AM,30.2,26.6,86,29.91,10.0,North,8.1,-,N/A,,Clear,10,2013-03-06 11:31:00
6:51 AM,30.2,26.6,86,29.93,10.0,NNE,5.8,-,N/A,,Clear,20,2013-03-06 11:51:00
7:11 AM,30.2,26.6,86,29.94,10.0,North,5.8,-,N/A,,Clear,10,2013-03-06 12:11:00
7:32 AM,30.2,26.6,86,29.96,10.0,North,8.1,-,N/A,,Clear,10,2013-03-06 12:32:00
7:52 AM,30.2,26.6,86,29.97,10.0,North,6.9,-,N/A,,Clear,360,2013-03-06 12:52:00
8:12 AM,30.2,26.6,86,29.98,10.0,North,6.9,-,N/A,,Clear,10,2013-03-06 13:12:00
8:32 AM,32.0,28.4,87,29.99,10.0,North,8.1,-,N/A,,Clear,10,2013-03-06 13:32:00
8:52 AM,33.8,28.4,81,30.00,10.0,North,8.1,-,N/A,,Clear,10,2013-03-06 13:52:00
9:12 AM,33.8,28.4,81,30.02,10.0,North,5.8,-,N/A,,Clear,10,2013-03-06 14:12:00
9:32 AM,35.6,28.4,75,30.02,10.0,NE,8.1,-,N/A,,Clear,50,2013-03-06 14:32:00
9:52 AM,37.4,28.4,70,30.03,10.0,ENE,8.1,-,N/A,,Scattered Clouds,60,2013-03-06 14:52:00
10:12 AM,37.4,28.4,70,30.04,10.0,NE,6.9,-,N/A,,Scattered Clouds,40,2013-03-06 15:12:00
10:33 AM,37.4,28.4,70,30.05,10.0,NE,8.1,-,N/A,,Mostly Cloudy,40,2013-03-06 15:33:00
10:53 AM,37.4,28.4,70,30.05,10.0,ENE,6.9,-,N/A,,Scattered Clouds,60,2013-03-06 15:53:00
11:13 AM,37.4,30.2,75,30.06,10.0,NNE,5.8,-,N/A,,Overcast,30,2013-03-06 16:13:00
11:33 AM,39.2,28.4,65,30.07,10.0,ENE,6.9,-,N/A,,Overcast,70,2013-03-06 16:33:00
11:53 AM,39.2,30.2,70,30.07,10.0,NE,8.1,-,N/A,,Overcast,40,2013-03-06 16:53:00
12:13 PM,41.0,30.2,65,30.07,10.0,NNE,4.6,-,N/A,,Overcast,30,2013-03-06 17:13:00
12:33 PM,39.2,28.4,65,30.08,10.0,NE,3.5,-,N/A,,Overcast,50,2013-03-06 17:33:00
12:53 PM,39.2,28.4,65,30.08,10.0,East,4.6,-,N/A,,Overcast,90,2013-03-06 17:53:00
1:13 PM,39.2,30.2,70,30.09,10.0,North,5.8,-,N/A,,Overcast,360,2013-03-06 18:13:00
1:54 PM,39.2,30.2,70,30.09,10.0,Calm,Calm,-,N/A,,Overcast,0,2013-03-06 18:54:00
2:14 PM,39.2,30.2,70,30.09,10.0,North,3.5,-,N/A,,Overcast,360,2013-03-06 19:14:00
2:34 PM,39.2,30.2,70,30.09,10.0,Calm,Calm,-,N/A,,Overcast,0,2013-03-06 19:34:00
2:54 PM,39.2,30.2,70,30.10,10.0,Calm,Calm,-,N/A,,Overcast,0,2013-03-06 19:54:00
3:14 PM,39.2,30.2,70,30.10,10.0,Calm,Calm,-,N/A,,Overcast,0,2013-03-06 20:14:00
3:34 PM,41.0,30.2,65,30.10,10.0,SW,3.5,-,N/A,,Overcast,230,2013-03-06 20:34:00
4:14 PM,41.0,30.2,65,30.10,10.0,Calm,Calm,-,N/A,,Mostly Cloudy,0,2013-03-06 21:14:00
4:34 PM,39.2,32.0,75,30.11,10.0,SSW,3.5,-,N/A,,Overcast,200,2013-03-06 21:34:00
4:54 PM,39.2,32.0,75,30.12,10.0,SW,4.6,-,N/A,,Overcast,220,2013-03-06 21:54:00
5:15 PM,39.2,32.0,75,30.12,10.0,SSW,4.6,-,N/A,,Overcast,210,2013-03-06 22:15:00
5:35 PM,39.2,30.2,70,30.13,10.0,West,6.9,-,N/A,,Overcast,280,2013-03-06 22:35:00
5:55 PM,37.4,30.2,75,30.14,10.0,West,9.2,-,N/A,,Overcast,280,2013-03-06 22:55:00
6:15 PM,37.4,30.2,75,30.15,10.0,West,6.9,-,N/A,,Overcast,280,2013-03-06 23:15:00
6:35 PM,37.4,30.2,75,30.15,10.0,WNW,4.6,-,N/A,,Overcast,290,2013-03-06 23:35:00
6:55 PM,37.4,30.2,75,30.15,10.0,WNW,4.6,-,N/A,,Mostly Cloudy,290,2013-03-06 23:55:00
7:15 PM,35.6,30.2,81,30.16,10.0,WNW,5.8,-,N/A,,Mostly Cloudy,290,2013-03-07 00:15:00
7:35 PM,35.6,30.2,81,30.16,10.0,WNW,4.6,-,N/A,,Mostly Cloudy,300,2013-03-07 00:35:00
7:55 PM,35.6,30.2,81,30.16,10.0,WNW,4.6,-,N/A,,Overcast,300,2013-03-07 00:55:00
8:16 PM,35.6,28.4,75,30.17,10.0,NW,6.9,-,N/A,,Mostly Cloudy,310,2013-03-07 01:16:00
8:36 PM,35.6,28.4,75,30.17,10.0,WNW,4.6,-,N/A,,Mostly Cloudy,300,2013-03-07 01:36:00
8:51 PM,35.6,30.2,81,30.18,10.0,West,3.5,-,N/A,,Overcast,270,2013-03-07 01:51:00
9:11 PM,33.8,30.2,87,30.18,10.0,WNW,5.8,-,N/A,,Overcast,290,2013-03-07 02:11:00
9:31 PM,33.8,30.2,87,30.18,10.0,WNW,6.9,-,N/A,,Overcast,290,2013-03-07 02:31:00
9:51 PM,35.6,30.2,81,30.19,10.0,WNW,4.6,-,N/A,,Overcast,300,2013-03-07 02:51:00
10:11 PM,35.6,30.2,81,30.19,10.0,NW,5.8,-,N/A,,Overcast,310,2013-03-07 03:11:00
10:31 PM,35.6,30.2,81,30.18,10.0,WNW,4.6,-,N/A,,Overcast,300,2013-03-07 03:31:00
10:51 PM,35.6,30.2,81,30.19,10.0,WNW,4.6,-,N/A,,Overcast,300,2013-03-07 03:51:00
11:11 PM,35.6,30.2,81,30.19,10.0,NW,4.6,-,N/A,,Overcast,320,2013-03-07 04:11:00
11:32 PM,35.6,30.2,81,30.19,10.0,NW,3.5,-,N/A,,Overcast,310,2013-03-07 04:32:00
11:52 PM,35.6,30.2,81,30.19,10.0,West,3.5,-,N/A,,Overcast,280,2013-03-07 04:52:00